GEFSSGP_con_cape1000_000.txt.gz
Probability
0 0 0 0 0 0 0 0 0 0 0 0 0 0 0 0 0 0 45 100 100 100 100 100 100 100 100 100 100 100 100 100 100 100 100 100 100 100 100 100 100 100 100 100 100 100 100 100 100
0 0 0 0 0 0 0 0 0 0 0 3 39 19 45 42 65 90 94 100 100 100 100 100 100 100 100 100 100 100 100 100 100 100 100 100 100 100 100 100 100 100 100 100 100 100 100 100 100
0 0 0 0 0 0 0 0 0 0 13 58 61 74 87 100 100 100 100 100 100 100 100 100 100 100 100 100 100 100 100 100 100 100 100 100 100 100 100 100 100 100 100 100 100 100 100 100 100
0 0 0 0 0 0 0 0 0 3 0 6 68 65 81 100 100 100 100 100 100 100 100 100 100 100 100 100 100 100 100 100 100 100 100 100 100 100 100 100 100 100 100 100 100 100 100 100 97
0 0 0 0 0 0 0 0 0 0 0 0 10 29 65 97 97 100 100 100 100 100 100 100 100 100 100 100 100 100 100 100 100 100 100 100 100 100 100 100 100 100 100 100 100 100 90 84 61
0 0 0 0 0 0 0 0 0 0 0 23 10 26 55 84 100 100 100 100 100 100 100 100 100 100 100 100 100 100 100 100 100 100 100 100 100 100 100 100 100 100 100 100 97 74 52 35 29
0 0 0 0 0 0 0 0 0 0 0 6 10 13 55 100 100 100 100 87 77 97 100 100 100 100 100 100 100 100 100 100 100 100 100 100 100 100 100 100 100 100 100 94 45 0 3 23 6
0 0 0 0 0 0 0 0 0 0 0 3 10 23 84 100 100 87 0 0 0 0 23 97 100 100 100 100 100 100 100 100 100 100 100 100 100 100 100 100 100 100 100 100 61 23 3 3 3
0 0 0 0 0 0 0 0 0 0 3 3 10 55 100 100 90 0 0 0 0 0 0 13 100 100 100 100 100 100 100 100 100 100 100 100 100 100 100 100 100 100 100 100 48 6 0 0 0
0 0 0 0 0 0 0 0 0 0 3 48 97 100 100 100 6 0 0 0 0 0 0 0 100 100 100 100 100 100 100 100 97 97 94 97 94 100 100 100 100 100 100 87 42 13 3 0 0
0 0 0 0 0 0 0 0 0 0 0 23 100 100 100 52 0 0 0 0 0 0 0 0 94 100 100 100 100 100 100 100 87 84 42 23 61 52 87 84 94 81 68 52 23 0 0 0 0
0 0 0 0 0 0 0 0 0 0 0 10 100 100 100 10 0 0 0 0 0 0 0 0 13 94 100 100 100 100 97 94 23 19 32 23 48 23 29 32 19 13 10 0 0 0 0 0 0
0 0 0 0 0 0 0 0 0 0 3 71 100 100 100 29 0 0 0 0 0 0 0 0 0 68 97 100 97 87 77 58 16 55 81 74 87 84 74 58 0 0 0 0 0 0 0 0 0
0 0 0 0 0 0 0 0 0 19 55 94 100 100 100 77 0 0 0 0 0 0 0 0 0 45 77 87 87 81 77 42 13 19 6 3 35 74 29 0 0 0 0 0 0 0 0 0 0
0 0 0 0 0 0 0 0 0 35 42 74 77 94 97 74 3 0 0 0 0 0 0 0 0 55 35 26 52 65 58 16 0 0 0 0 0 0 0 0 0 0 0 0 0 0 0 0 0
0 0 0 0 0 0 0 0 0 16 42 52 19 10 52 29 0 0 0 0 0 0 0 0 3 48 19 0 0 0 0 0 0 0 0 0 0 0 0 0 0 0 0 0 0 0 0 0 0
0 0 0 0 0 0 0 0 0 0 16 6 3 6 16 10 3 0 0 0 0 0 0 0 0 13 0 0 0 0 0 0 0 0 0 0 0 0 0 0 0 0 0 0 0 0 0 0 0
0 0 0 0 0 0 0 0 0 0 0 6 3 6 19 6 3 0 0 0 0 0 0 0 0 0 0 0 0 0 0 0 0 0 0 0 0 0 0 0 0 0 0 0 0 0 0 0 0
0 0 0 0 0 0 0 0 0 0 0 0 0 3 10 6 0 0 0 0 0 0 0 0 0 0 0 0 0 0 0 0 0 0 0 0 0 0 0 0 0 0 0 0 0 0 0 0 0
0 0 0 0 0 0 0 0 0 0 0 0 0 0 3 0 0 0 0 0 0 0 0 0 0 0 0 0 0 0 0 0 0 0 0 0 0 0 0 0 0 0 0 0 0 0 0 0 0
0 0 0 0 0 0 0 0 0 0 0 0 0 0 0 0 0 0 0 0 0 0 0 0 0 0 0 0 0 0 0 0 0 0 0 0 0 0 0 0 0 0 0 0 0 0 0 0 0
0 0 0 0 0 0 0 0 0 0 0 0 0 0 0 0 0 0 0 0 0 0 0 0 0 0 0 0 0 0 0 0 0 0 0 0 0 0 0 0 0 0 0 0 0 0 0 0 0
0 0 0 0 0 0 0 0 0 0 0 0 0 0 0 0 0 0 0 0 0 0 0 0 0 0 0 0 0 0 0 0 0 0 0 0 0 0 0 0 0 0 0 0 0 0 0 0 0
0 0 0 0 0 0 0 0 0 0 0 0 0 0 0 0 0 0 0 0 0 0 0 0 0 0 0 0 0 0 0 0 0 0 0 0 0 0 0 0 0 0 0 0 0 0 0 0 0
0 0 0 0 0 0 0 0 0 0 0 0 0 0 0 0 0 0 0 0 0 0 0 0 0 0 0 0 0 0 0 0 0 0 0 0 0 0 0 0 0 0 0 0 0 0 0 0 0
0 0 0 0 0 0 0 0 0 0 0 0 0 0 0 0 0 0 0 0 0 0 0 0 0 0 0 0 0 0 0 0 0 0 0 0 0 0 0 0 0 0 0 0 0 0 0 0 0
0 0 0 0 0 0 0 0 0 0 0 0 0 0 0 0 0 0 0 0 0 0 0 0 0 0 0 0 0 0 0 0 0 0 0 0 0 0 0 0 0 0 0 0 0 0 0 0 0
0 0 0 0 0 0 0 0 0 0 0 0 0 0 0 0 0 0 0 0 0 0 0 0 0 0 0 0 0 0 0 0 0 0 0 0 0 0 0 0 0 0 0 0 0 0 0 0 0
0 0 0 0 0 0 0 0 0 0 0 0 0 0 0 0 0 0 0 0 0 0 0 0 0 0 0 0 0 0 0 0 0 0 0 0 0 0 0 0 0 0 0 0 0 0 0 0 0
0 0 0 0 0 0 0 0 0 0 0 0 0 0 0 0 0 0 0 0 0 0 0 0 0 0 0 0 0 0 0 0 0 0 0 0 0 0 0 0 0 0 0 0 0 0 0 0 0

GEFSSGP_con_cape1000_006.txt.gz
Probability
0 0 0 0 0 0 0 0 0 0 0 0 0 0 0 0 0 32 100 100 100 45 87 100 100 100 100 100 100 100 100 100 100 100 100 100 100 100 100 100 100 100 100 100 100 100 100 100 100
0 0 0 0 0 0 0 0 0 0 0 16 16 3 0 45 94 97 100 100 100 87 97 100 100 100 100 100 100 100 100 100 100 100 100 100 100 100 100 100 100 100 100 94 90 97 84 97 97
0 0 0 0 0 0 0 0 0 0 23 13 6 0 3 100 100 100 100 100 100 100 100 100 100 100 100 100 100 100 100 100 100 100 100 100 100 100 100 100 100 100 94 81 65 55 71 100 94
0 0 0 0 0 0 0 0 0 10 32 3 0 13 97 100 100 100 100 100 94 97 94 100 100 100 100 100 100 100 100 100 100 100 100 100 100 100 100 100 100 100 97 97 90 87 100 94 81
0 0 0 0 0 0 0 0 6 35 10 10 13 29 100 100 100 100 100 97 100 90 77 77 100 100 100 100 100 100 100 100 100 100 100 100 100 100 100 94 87 87 84 94 97 94 77 58 32
0 0 0 0 0 0 0 0 6 3 10 32 29 26 100 100 100 100 100 100 100 97 87 100 100 100 100 100 100 100 100 100 100 100 100 100 100 100 100 97 87 87 94 90 58 16 6 10 3
0 0 0 0 0 0 0 0 0 0 10 23 39 35 100 100 100 100 100 100 100 100 94 97 100 100 100 100 100 97 97 97 97 97 100 100 100 97 94 97 84 94 100 65 13 3 0 0 0
0 0 0 0 0 0 0 0 0 0 3 42 39 16 81 100 100 100 100 100 100 100 97 100 100 100 100 100 97 100 100 97 97 97 100 97 87 87 84 94 68 61 87 84 26 3 0 0 0
0 0 0 0 0 0 0 0 0 0 32 74 48 23 97 100 100 100 100 100 100 100 97 100 100 100 100 100 100 100 100 100 100 97 97 94 90 97 97 84 55 29 71 42 6 0 0 0 0
0 0 0 0 0 0 0 0 0 3 42 74 77 90 100 100 100 100 100 100 100 100 90 87 90 100 97 100 100 100 100 100 100 100 94 90 97 94 87 94 94 90 81 39 16 3 0 0 0
0 0 0 0 0 0 0 0 0 0 10 52 90 100 100 100 100 100 100 100 100 65 39 13 90 100 97 100 100 100 94 100 100 100 97 100 94 94 81 68 65 45 19 0 0 0 0 0 0
0 0 0 0 0 0 0 0 0 0 0 6 77 100 100 100 100 100 100 100 87 13 0 0 97 100 97 94 97 94 90 94 87 100 100 97 97 68 19 13 0 0 0 0 0 0 0 0 0
0 0 0 0 0 0 0 0 0 0 0 23 97 100 100 100 100 100 100 94 61 23 0 0 84 100 100 100 94 58 65 68 77 87 100 97 42 16 6 13 23 6 0 0 0 0 0 0 0
0 0 0 0 0 0 0 0 0 0 6 81 97 100 100 100 100 100 97 77 61 52 16 0 55 100 100 100 100 84 42 97 35 58 81 97 87 90 94 87 87 32 19 3 3 0 0 0 0
0 0 0 0 0 0 0 0 0 6 39 87 100 100 100 100 100 100 90 61 42 39 35 19 58 100 100 100 100 97 94 94 55 71 81 65 48 87 87 68 35 13 6 0 3 0 0 0 0
0 0 0 0 0 0 0 0 0 6 52 77 97 100 100 100 100 97 52 35 23 26 35 16 3 97 100 100 100 100 100 94 84 58 58 29 29 23 32 6 3 16 0 0 3 0 0 0 0
0 0 0 0 0 0 0 0 0 3 32 55 97 100 100 100 100 90 48 16 3 19 42 39 55 97 97 97 94 90 81 77 55 39 19 3 0 0 0 0 3 0 0 0 0 0 0 0 0
0 0 0 0 0 0 0 0 0 3 10 35 87 100 100 100 100 84 39 3 3 23 68 90 97 97 94 94 87 68 26 10 6 3 3 0 0 0 0 0 0 0 0 0 0 0 0 0 0
0 0 0 0 0 0 0 0 0 0 3 16 68 97 100 100 100 74 29 3 6 35 74 90 90 97 94 87 74 39 6 0 0 0 0 0 0 0 0 0 0 0 0 0 0 0 0 0 0
0 0 0 0 0 0 0 0 0 0 0 10 35 97 100 100 87 68 26 13 16 32 74 87 94 84 87 94 65 10 0 0 0 0 0 0 0 0 0 0 0 0 0 0 0 0 0 0 0
0 0 0 0 0 0 0 0 0 0 0 0 23 68 100 100 87 68 39 26 16 16 35 42 68 61 45 26 3 0 0 0 0 0 0 0 0 0 0 0 0 0 0 0 0 0 0 0 0
0 0 0 0 0 0 0 0 0 0 0 3 6 52 97 100 97 74 39 16 6 6 16 19 26 19 10 3 3 0 0 0 0 0 0 0 0 0 0 0 0 0 0 0 0 0 0 0 0
0 0 0 0 0 0 0 0 0 0 0 0 16 39 74 97 97 68 26 6 3 0 3 3 3 0 0 0 0 0 0 0 0 0 0 0 0 0 0 0 0 0 0 0 0 0 0 0 0
0 0 0 0 0 0 0 0 0 0 0 0 3 58 68 90 77 19 6 0 0 0 0 0 0 0 0 0 0 0 0 0 0 0 0 0 0 0 0 0 0 0 0 0 0 0 0 0 0
0 0 0 0 0 0 0 0 0 0 0 0 13 71 77 61 10 0 0 0 0 0 0 0 0 0 0 0 0 0 0 0 0 0 0 0 0 0 0 0 0 0 0 0 0 0 0 0 0
0 0 0 0 0 0 0 0 0 0 0 0 19 81 52 10 0 0 0 0 0 0 0 0 0 0 0 0 0 0 0 0 0 0 0 0 0 0 0 0 0 0 0 0 0 0 0 0 0
0 0 0 0 0 0 0 0 0 0 0 0 32 65 19 3 0 0 0 0 0 0 0 0 0 0 0 0 0 0 0 0 0 0 0 0 0 0 0 0 0 0 0 0 0 0 0 0 0
0 0 0 0 0 0 0 0 0 0 0 0 52 61 13 0 0 0 0 0 0 0 0 0 0 0 0 0 0 0 0 0 0 0 0 0 0 0 0 0 0 0 0 0 0 0 0 0 0
0 0 0 0 0 0 0 0 0 0 0 3 77 71 3 0 0 0 0 0 0 0 0 0 0 0 0 0 0 0 0 0 0 0 0 0 0 0 0 0 0 0 0 0 0 0 0 0 0
0 0 0 0 0 0 0 0 0 0 0 0 39 58 3 0 0 0 0 0 0 0 0 0 0 0 0 0 0 0 0 0 0 0 0 0 0 0 0 0 0 0 0 0 0 0 0 0 0

GEFSSGP_con_cape1000_012.txt.gz
Probability
0 0 0 0 0 0 0 0 0 0 0 0 0 0 0 6 61 97 94 77 100 97 100 100 100 100 100 100 100 100 100 100 100 100 100 100 100 100 100 100 100 97 97 90 90 94 97 100 97
0 0 0 0 0 0 0 0 0 0 0 0 0 0 0 3 74 97 100 100 100 100 97 100 100 100 100 100 100 100 100 100 100 100 100 100 100 100 100 100 97 90 87 81 94 94 97 100 94
0 0 0 0 0 0 0 0 0 0 0 0 0 0 0 6 74 100 100 97 100 100 100 100 100 100 100 100 100 100 100 100 100 100 100 100 100 100 100 97 84 84 90 84 77 81 97 97 81
0 0 0 0 0 0 0 0 0 0 0 0 0 0 3 23 84 100 100 94 100 100 100 100 100 100 100 100 100 100 100 100 100 100 100 100 100 100 90 84 84 94 90 81 77 84 90 87 68
0 0 0 0 0 0 0 0 0 0 0 0 0 3 45 65 87 97 100 100 100 100 100 100 100 100 100 100 100 100 100 100 100 100 100 100 100 87 71 81 97 97 97 97 90 90 84 68 29
0 0 0 0 0 0 0 0 0 0 0 0 0 6 58 65 81 81 94 100 100 100 100 100 100 100 100 100 100 100 100 100 100 97 97 97 100 94 90 94 90 94 94 90 74 52 39 13 3
0 0 0 0 0 0 0 0 0 0 0 0 0 16 65 71 90 90 97 100 97 100 100 100 100 100 100 100 100 100 100 94 97 97 97 94 97 100 100 100 94 94 94 68 16 13 6 0 0
0 0 0 0 0 0 0 0 0 0 0 0 0 3 65 90 94 94 100 100 100 100 97 100 100 100 100 100 100 100 97 97 97 97 94 94 97 97 100 100 94 90 81 48 19 10 3 0 0
0 0 0 0 0 0 0 0 0 0 0 0 0 13 81 90 74 97 100 100 100 100 100 100 100 100 100 100 100 100 97 97 97 97 97 97 100 100 100 97 94 97 81 52 16 3 3 0 0
0 0 0 0 0 0 0 0 0 0 0 0 3 48 81 74 84 90 100 100 100 100 100 100 100 100 97 97 97 100 100 100 100 100 97 100 100 100 100 100 100 100 94 68 35 29 16 3 0
0 0 0 0 0 0 0 0 0 0 0 0 6 32 68 77 81 84 94 100 100 100 97 97 97 100 100 100 100 100 100 100 100 100 100 100 100 100 100 84 100 100 97 48 39 32 3 0 0
0 0 0 0 0 0 0 0 0 0 0 0 0 19 58 61 52 52 77 97 100 87 77 77 81 97 100 97 100 100 100 100 100 100 100 100 100 100 100 100 94 94 71 61 19 29 6 3 0
0 0 0 0 0 0 0 0 0 0 0 0 0 13 45 29 35 45 65 87 90 74 55 71 100 100 100 100 100 100 100 100 100 100 97 97 100 100 97 94 97 90 68 42 65 26 32 3 6
0 0 0 0 0 0 0 0 0 0 0 0 0 10 48 32 23 58 90 100 84 65 42 77 100 100 100 100 100 100 97 100 100 100 97 94 100 100 100 100 100 100 90 74 74 39 32 35 42
0 0 0 0 0 0 0 0 0 0 0 0 0 6 52 42 23 71 94 100 94 81 81 94 100 100 100 100 100 100 100 100 100 100 100 94 100 100 97 100 87 77 71 42 52 29 42 29 13
0 0 0 0 0 0 0 0 0 0 0 0 0 0 19 94 45 77 97 100 100 97 100 100 74 100 100 100 100 100 97 97 97 94 87 87 77 68 74 77 58 55 35 26 32 23 13 16 3
0 0 0 0 0 0 0 0 0 0 0 0 0 0 10 81 84 90 100 97 97 100 100 100 100 100 100 100 100 97 97 94 84 77 65 58 19 10 29 29 29 19 16 13 0 0 0 0 0
0 0 0 0 0 0 0 0 0 0 0 0 0 0 16 77 100 100 100 97 97 100 100 100 100 100 100 97 97 94 84 74 61 42 45 23 6 3 10 13 3 3 6 3 0 0 0 0 0
0 0 0 0 0 0 0 0 0 0 0 0 0 0 16 65 100 97 94 94 94 100 100 100 100 97 97 97 90 84 71 48 35 23 16 3 3 3 0 0 0 0 0 0 0 0 0 0 0
0 0 0 0 0 0 0 0 0 0 0 0 0 0 10 68 97 94 94 94 94 97 100 100 97 97 97 94 97 81 58 29 10 3 3 0 0 0 0 0 0 0 0 0 0 0 0 0 0
0 0 0 0 0 0 0 0 0 0 0 0 0 0 0 55 100 97 90 94 90 94 97 100 97 97 97 94 74 45 23 6 0 0 0 0 0 0 0 0 0 0 0 0 0 0 0 0 0
0 0 0 0 0 0 0 0 0 0 0 0 0 0 0 26 94 100 90 90 94 94 97 97 97 97 94 81 45 29 13 6 3 0 0 0 0 0 0 0 0 0 0 0 0 0 0 0 0
0 0 0 0 0 0 0 0 0 0 0 0 0 0 0 6 65 100 100 94 87 90 94 97 97 94 77 68 61 58 23 10 3 0 0 0 0 0 0 0 0 0 0 0 0 0 0 0 0
0 0 0 0 0 0 0 0 0 0 0 0 0 0 0 3 61 100 100 94 81 77 74 68 77 61 58 35 26 16 3 0 0 0 0 0 0 0 0 0 0 0 0 0 0 0 0 0 0
0 0 0 0 0 0 0 0 0 0 0 0 0 0 3 26 68 100 100 81 58 45 35 32 23 13 0 0 0 0 0 0 0 0 0 0 0 0 0 0 0 0 0 0 0 0 0 0 0
0 0 0 0 0 0 0 0 0 0 0 0 0 6 26 71 94 100 68 48 23 10 10 0 0 0 0 0 0 0 0 0 0 0 0 0 0 0 0 0 0 0 0 0 0 0 0 0 0
0 0 0 0 0 0 0 0 0 0 0 0 3 23 77 100 94 61 19 6 0 0 0 0 0 0 0 0 0 0 0 0 0 0 0 0 0 0 0 0 0 0 0 0 0 0 0 0 0
0 0 0 0 0 0 0 0 0 0 0 3 10 65 97 81 42 6 0 0 0 0 0 0 0 0 0 0 0 0 0 0 0 0 0 0 0 0 0 0 0 0 0 0 0 0 0 0 0
0 0 0 0 0 0 0 0 0 0 0 0 10 77 84 42 10 0 0 0 0 0 0 0 0 0 0 0 0 0 0 0 0 0 0 0 0 0 0 0 0 0 0 0 0 0 0 0 0
0 0 0 0 0 0 0 0 0 0 0 0 26 97 65 16 0 0 0 0 0 0 0 0 0 0 0 0 0 0 0 0 0 0 0 0 0 0 0 0 0 0 0 0 0 0 0 0 0

GEFSSGP_con_cape1000_018.txt.gz
Probability
0 0 0 0 0 0 0 0 0 0 0 0 0 13 45 68 13 23 6 3 48 100 100 100 100 100 100 100 100 100 100 100 100 100 100 100 100 100 100 100 100 100 100 100 100 100 100 97 94
0 0 0 0 0 0 0 0 0 0 0 3 29 81 94 90 74 35 13 19 61 100 100 100 100 100 100 100 100 100 100 100 100 100 100 100 100 100 100 100 100 100 100 100 100 100 97 97 94
0 0 0 0 0 0 0 0 0 0 0 0 0 26 100 100 94 77 32 26 45 87 100 100 100 100 100 100 100 100 100 100 100 100 100 100 100 100 100 100 100 100 100 100 100 100 97 97 81
0 0 0 0 0 0 0 0 0 0 0 0 13 58 100 100 100 97 29 10 16 71 100 100 100 100 100 100 100 100 100 100 100 100 100 100 100 100 100 100 100 100 100 100 100 100 97 94 74
0 0 0 0 0 0 0 0 0 0 0 10 58 87 100 100 100 81 45 16 16 65 100 100 100 100 100 100 100 100 100 100 100 100 100 100 100 100 100 100 100 100 100 100 100 100 97 94 68
0 0 0 0 0 0 0 0 0 0 3 29 65 74 94 100 97 94 77 68 45 90 100 100 100 100 100 100 100 100 100 100 100 100 100 100 100 100 100 100 100 100 100 100 100 94 90 81 61
0 0 0 0 0 0 0 0 0 0 0 16 35 61 81 90 97 100 97 97 84 100 100 100 100 100 100 100 100 100 100 100 100 100 100 100 100 100 100 100 100 100 100 97 87 84 74 68 48
0 0 0 0 0 0 0 0 0 0 0 13 39 61 77 84 100 97 100 100 100 100 100 100 100 100 100 100 100 100 100 100 100 100 100 100 100 100 100 100 100 97 97 90 84 77 71 58 39
0 0 0 0 0 0 0 0 0 3 3 10 26 48 71 87 90 97 100 100 100 100 100 100 100 100 100 100 100 100 100 100 100 97 97 100 94 97 100 100 100 97 97 87 84 74 61 48 13
0 0 0 0 0 0 0 0 0 3 6 26 48 58 71 84 87 97 100 100 100 97 97 100 97 97 100 100 100 90 94 97 97 97 97 90 32 19 87 100 100 100 100 97 81 74 61 19 3
0 0 0 0 0 0 0 0 0 0 19 35 55 68 65 81 87 94 97 100 100 94 100 100 97 97 90 90 90 97 94 97 71 61 81 58 29 16 35 61 100 97 100 68 35 29 16 6 0
0 0 0 0 0 0 0 0 0 0 10 42 55 65 71 77 90 90 90 94 94 100 100 100 97 94 81 87 90 87 77 65 35 35 10 3 16 23 3 0 6 29 29 16 0 0 0 0 0
0 0 0 0 0 0 0 0 3 6 23 42 42 52 58 61 71 84 87 94 94 100 100 100 97 87 84 74 74 84 77 71 32 61 42 10 16 23 13 6 0 0 0 0 0 0 0 0 0
0 0 0 0 0 0 0 0 0 6 26 32 35 26 32 48 65 87 94 90 90 100 100 100 97 90 84 81 81 90 87 74 71 61 58 48 29 10 13 6 3 0 0 0 0 0 0 0 0
0 0 0 0 0 0 0 0 0 3 26 32 32 26 29 39 48 74 84 84 84 81 94 100 97 90 87 81 77 94 94 84 68 39 26 29 10 6 0 0 0 0 0 0 0 0 0 0 0
0 0 0 0 0 0 0 0 0 0 6 19 16 19 26 29 39 65 74 77 61 68 74 94 100 87 48 39 52 77 74 61 35 19 6 6 3 3 0 0 0 0 0 0 0 0 0 0 0
0 0 0 0 0 0 0 0 0 0 0 0 6 16 23 23 19 52 74 68 45 58 81 87 90 58 42 23 10 23 26 23 10 3 0 0 0 0 0 0 0 0 0 0 0 0 0 0 0
0 0 0 0 0 0 0 0 0 0 0 0 3 13 16 13 13 35 65 55 39 48 61 90 94 81 55 19 6 3 3 6 3 0 0 0 0 0 0 0 0 0 0 0 0 0 0 0 0
0 0 0 0 0 0 0 0 0 0 0 0 6 13 13 10 10 32 48 32 23 39 48 81 94 84 65 45 13 3 0 0 0 0 0 0 0 0 0 0 0 0 0 0 0 0 0 0 0
0 0 0 0 0 0 0 0 0 0 0 0 6 6 6 13 26 55 48 29 19 16 35 65 94 81 61 39 10 0 0 0 0 0 0 0 0 0 0 0 0 0 0 0 0 0 0 0 0
0 0 0 0 0 0 0 0 0 0 0 0 3 13 26 32 55 71 61 45 29 32 35 61 97 84 55 26 3 0 0 0 0 0 0 0 0 0 0 0 0 0 0 0 0 0 0 0 0
0 0 0 0 0 0 0 0 0 0 0 0 0 6 29 48 61 71 65 61 52 48 52 81 87 71 42 10 3 0 0 0 0 0 0 0 0 0 0 0 0 0 0 0 0 0 0 0 0
0 0 0 0 0 0 0 0 0 0 0 0 0 0 19 61 81 77 65 61 61 68 84 84 68 32 13 3 0 0 0 0 0 0 0 0 0 0 0 0 0 0 0 0 0 0 0 0 0
0 0 0 0 0 0 0 0 0 0 0 0 0 3 6 39 81 71 55 58 74 61 74 55 16 6 0 0 0 0 0 0 0 0 0 0 0 0 0 0 0 0 0 0 0 0 0 0 0
0 0 0 0 0 0 0 0 0 0 0 3 6 13 10 48 84 74 71 74 65 48 19 6 3 0 0 0 0 0 0 0 0 0 0 0 0 0 0 0 0 0 0 0 0 0 0 0 0
0 0 0 0 0 0 0 0 0 6 26 39 55 55 55 77 77 74 61 58 29 10 3 3 0 0 0 0 0 0 0 0 0 0 0 0 0 0 0 0 0 0 0 0 0 0 0 0 0
0 0 0 0 0 0 0 0 3 35 61 90 97 90 87 81 65 32 16 3 0 0 0 0 0 0 0 0 0 0 0 0 0 0 0 0 0 0 0 0 0 0 0 0 0 0 0 0 0
0 0 0 0 0 0 0 0 0 19 61 97 90 81 52 32 16 3 0 0 0 0 0 0 0 0 0 0 0 0 0 0 0 0 0 0 0 0 0 0 0 0 0 0 0 0 0 0 0
0 0 0 0 0 0 0 0 16 16 52 77 55 26 16 6 3 0 0 0 0 0 0 0 0 0 0 0 0 0 0 0 0 0 0 0 0 0 0 0 0 0 0 0 0 0 0 0 0
0 0 0 0 0 0 0 0 10 6 13 29 16 6 0 0 0 0 0 0 0 0 0 0 0 0 0 0 0 0 0 0 0 0 0 0 0 0 0 0 0 0 0 0 0 0 0 0 0

GEFSSGP_con_cape1000_024.txt.gz
Probability
0 0 0 0 0 0 0 0 0 0 0 0 0 0 0 0 0 0 0 0 23 90 100 100 100 100 100 100 100 100 100 100 100 100 100 100 100 100 100 100 100 100 100 100 100 100 100 100 94
0 0 0 0 0 0 0 0 0 0 0 3 23 42 48 61 39 0 0 29 74 97 100 100 100 100 100 100 100 100 100 100 100 100 100 100 100 100 100 100 100 100 100 100 100 94 90 94 94
0 0 0 0 0 0 0 0 0 0 0 6 48 81 90 77 42 0 3 74 97 100 100 100 100 100 100 100 100 100 100 100 100 100 100 100 100 100 100 100 100 100 100 100 100 97 94 90 84
0 0 0 0 0 0 0 0 0 3 0 6 45 94 100 77 23 10 26 84 100 100 100 100 100 100 100 100 100 100 100 100 100 100 100 100 100 100 100 100 100 100 100 100 100 97 97 90 74
0 0 0 0 0 0 0 0 0 0 0 23 81 100 100 94 55 32 48 81 100 100 100 100 100 100 100 100 100 100 100 100 100 100 100 100 100 100 100 100 100 100 100 100 97 97 97 87 68
0 0 0 0 0 0 0 0 0 0 3 48 94 100 100 94 42 35 39 48 81 100 100 100 100 100 100 100 100 100 100 100 100 100 100 100 100 100 100 100 100 100 100 100 100 97 87 77 68
0 0 0 0 0 0 0 0 0 0 6 42 94 97 97 74 26 10 13 19 77 100 100 100 100 100 100 100 100 100 100 100 100 100 100 100 100 100 100 100 100 100 100 100 97 90 81 68 45
0 0 0 0 0 0 0 0 0 0 3 26 77 97 97 84 19 6 0 13 84 100 100 100 100 100 100 100 100 100 100 100 100 100 100 100 100 100 100 100 100 100 100 100 87 81 77 61 39
0 0 0 0 0 0 0 0 3 3 13 35 52 81 100 90 42 39 42 52 87 100 100 100 100 100 100 100 100 100 100 100 100 100 100 100 100 100 100 100 100 100 100 94 87 71 71 55 26
0 0 0 0 0 0 0 0 3 6 19 35 45 84 100 84 65 65 58 55 84 100 100 97 94 100 97 100 100 100 100 100 94 94 97 97 65 55 100 100 100 100 100 90 77 74 65 32 3
0 0 0 0 0 0 0 0 3 6 13 29 55 97 100 94 84 87 74 65 61 77 100 97 94 94 94 94 94 94 90 94 94 90 90 42 13 10 61 23 81 100 100 68 52 19 6 3 3
0 0 0 0 0 0 0 0 0 6 3 10 52 100 100 97 97 97 90 84 68 71 87 90 94 94 94 74 94 90 81 71 52 32 39 6 6 3 3 3 6 23 23 16 6 3 0 0 0
0 0 0 0 0 0 0 0 0 0 0 13 58 100 100 100 97 100 97 97 81 74 71 87 90 84 81 68 84 84 61 52 16 13 6 6 3 3 3 0 3 3 3 0 0 0 0 0 0
0 0 0 0 0 0 0 0 0 0 0 29 65 100 100 100 100 100 100 100 81 77 71 74 84 81 71 65 74 68 42 13 10 6 6 3 3 3 0 0 0 0 0 0 0 0 0 0 0
0 0 0 0 0 0 0 0 0 0 6 32 61 94 100 100 100 100 100 97 84 74 61 55 81 81 65 68 61 39 29 13 6 6 3 6 3 3 0 0 0 0 0 0 0 0 0 0 0
0 0 0 0 0 0 0 0 0 0 16 26 39 71 84 90 90 100 100 97 97 81 61 55 77 81 68 65 55 26 16 10 10 6 6 13 6 0 0 0 0 0 0 0 0 0 0 0 0
0 0 0 0 0 0 0 0 0 0 13 26 35 48 71 77 74 81 94 94 97 94 68 77 81 74 74 68 39 13 10 6 6 6 0 0 3 0 0 0 0 0 0 0 0 0 0 0 0
0 0 0 0 0 0 0 0 0 0 3 13 26 35 39 52 68 61 71 90 90 90 87 84 77 68 71 55 26 10 6 3 0 0 0 0 0 0 0 0 0 0 0 0 0 0 0 0 0
0 0 0 0 0 0 0 0 0 0 0 3 6 16 26 35 48 52 48 65 74 71 84 84 77 68 61 39 16 13 3 0 0 0 0 0 0 0 0 0 0 0 0 0 0 0 0 0 0
0 0 0 0 0 0 0 0 0 0 0 0 3 6 13 23 19 29 35 39 58 71 74 77 74 65 48 26 13 0 0 0 0 0 0 0 0 0 0 0 0 0 0 0 0 0 0 0 0
0 0 0 0 0 0 0 0 0 0 0 0 0 0 3 6 6 6 19 35 52 65 71 74 65 45 26 10 0 0 0 0 0 0 0 0 0 0 0 0 0 0 0 0 0 0 0 0 0
0 0 0 0 0 0 0 0 0 0 0 0 0 0 0 0 3 6 6 26 32 48 58 55 45 16 6 0 0 0 0 0 0 0 0 0 0 0 0 0 0 0 0 0 0 0 0 0 0
0 0 0 0 0 0 0 0 0 0 0 0 0 0 0 3 3 3 6 10 16 26 35 32 10 3 0 0 0 0 0 0 0 0 0 0 0 0 0 0 0 0 0 0 0 0 0 0 0
0 0 0 0 0 0 0 0 0 0 6 6 3 3 3 0 3 3 3 13 23 19 19 13 3 0 0 0 0 0 0 0 0 0 0 0 0 0 0 0 0 0 0 0 0 0 0 0 0
0 0 0 0 0 0 0 0 0 10 32 23 13 6 10 13 16 13 19 19 10 16 16 0 0 0 0 0 0 0 0 0 0 0 0 0 0 0 0 0 0 0 0 0 0 0 0 0 0
0 0 0 0 0 0 0 0 3 39 52 45 42 35 39 35 29 26 10 6 3 3 0 0 0 0 0 0 0 0 0 0 0 0 0 0 0 0 0 0 0 0 0 0 0 0 0 0 0
0 0 0 0 0 0 0 0 3 23 55 52 52 42 35 19 16 10 0 0 0 0 0 0 0 0 0 0 0 0 0 0 0 0 0 0 0 0 0 0 0 0 0 0 0 0 0 0 0
0 0 0 0 0 0 0 0 0 3 42 58 32 23 10 6 3 3 0 0 0 0 0 0 0 0 0 0 0 0 0 0 0 0 0 0 0 0 0 0 0 0 0 0 0 0 0 0 0
0 0 0 0 0 0 0 0 0 6 42 48 26 13 3 0 0 0 0 0 0 0 0 0 0 0 0 0 0 0 0 0 0 0 0 0 0 0 0 0 0 0 0 0 0 0 0 0 0
0 0 0 0 0 0 0 0 0 26 35 26 10 3 0 0 0 0 0 0 0 0 0 0 0 0 0 0 0 0 0 0 0 0 0 0 0 0 0 0 0 0 0 0 0 0 0 0 0

GEFSSGP_con_cape1000_030.txt.gz
Probability
0 0 0 0 0 0 0 0 0 0 0 0 0 0 0 0 0 19 90 0 10 48 100 100 100 100 100 100 100 100 100 100 100 100 100 100 100 100 100 100 100 100 100 100 100 100 100 100 97
0 0 0 0 0 0 0 0 0 0 0 0 3 6 3 6 39 90 39 0 16 71 100 100 100 100 100 100 100 100 100 100 100 100 100 100 100 100 100 100 100 100 100 100 100 100 97 97 84
0 0 0 0 0 0 0 0 0 0 0 0 3 13 3 13 55 87 55 6 16 81 100 100 100 100 100 100 100 100 100 100 100 100 100 100 100 100 100 100 100 100 100 100 100 94 94 84 61
0 0 0 0 0 0 0 0 0 0 0 3 10 10 13 29 52 71 48 13 23 61 97 100 100 100 100 100 100 100 100 100 100 100 100 100 100 100 100 100 100 100 100 100 100 94 90 77 39
0 0 0 0 0 0 0 0 0 0 0 6 6 3 10 65 71 61 52 26 45 65 90 100 100 100 100 100 100 100 100 100 100 100 100 100 100 100 100 100 100 100 100 100 100 97 90 61 42
0 0 0 0 0 0 0 0 0 0 0 3 0 0 19 81 90 84 74 74 48 61 84 100 100 100 100 100 100 100 100 100 100 100 100 100 100 100 100 100 100 100 100 100 97 94 77 58 26
0 0 0 0 0 0 0 0 0 0 0 3 6 3 32 61 100 90 90 87 55 55 77 100 100 100 100 100 100 100 100 100 100 100 100 100 100 100 100 100 100 100 100 100 94 81 68 39 19
0 0 0 0 0 0 0 0 0 0 0 3 3 6 16 81 100 100 100 94 81 74 94 100 100 100 100 100 100 100 100 100 100 100 100 100 100 100 100 100 100 100 100 97 90 77 61 39 23
0 0 0 0 0 0 0 0 0 0 0 3 16 10 19 94 100 100 100 97 97 100 100 100 100 100 100 100 100 100 100 100 100 100 100 100 100 97 100 97 100 100 100 97 84 71 61 42 19
0 0 0 0 0 0 0 0 0 0 0 3 16 45 90 100 100 100 100 100 100 100 100 100 100 100 100 100 100 100 100 100 100 100 100 100 100 100 100 100 100 100 97 90 77 68 52 19 3
0 0 0 0 0 0 0 0 0 0 0 0 6 48 100 100 100 97 97 100 100 100 100 100 100 100 97 100 100 100 100 100 100 100 100 100 100 100 100 100 100 100 100 87 68 52 13 3 3
0 0 0 0 0 0 0 0 0 0 0 0 3 45 100 100 100 97 97 97 100 100 100 100 100 100 100 100 100 100 100 100 100 100 100 100 100 100 100 100 100 100 100 87 52 26 16 6 3
0 0 0 0 0 0 0 0 0 0 0 3 13 48 97 100 100 97 97 97 97 100 100 100 100 100 100 100 100 100 100 100 100 100 100 100 100 100 100 100 100 97 94 81 48 29 26 10 3
0 0 0 0 0 0 0 0 0 0 0 3 16 58 94 100 94 97 100 100 100 100 100 100 100 100 100 100 100 100 100 100 100 100 100 100 97 100 100 100 100 97 87 58 48 26 29 6 0
0 0 0 0 0 0 0 0 0 0 0 3 19 61 84 97 97 100 100 100 100 100 100 100 100 100 100 100 100 100 100 100 100 100 100 100 100 100 100 97 94 90 84 71 55 32 10 6 0
0 0 0 0 0 0 0 0 0 0 0 3 6 16 77 97 100 100 100 100 100 100 100 100 100 100 100 100 100 100 100 100 100 100 97 97 97 97 97 90 81 77 65 42 42 19 3 0 0
0 0 0 0 0 0 0 0 0 0 0 0 3 13 55 90 100 100 100 100 100 100 100 100 100 100 100 100 100 100 97 97 94 90 90 90 87 87 84 71 61 45 45 29 10 10 3 3 6
0 0 0 0 0 0 0 0 0 0 0 0 3 6 23 65 94 100 100 100 100 100 100 100 100 100 100 97 97 94 87 74 65 58 55 58 61 55 45 32 26 23 10 6 6 3 3 3 3
0 0 0 0 0 0 0 0 0 0 0 0 3 3 6 16 39 74 97 100 100 100 100 100 100 100 100 97 97 87 74 39 23 19 19 23 19 19 23 16 10 3 3 3 0 0 0 0 0
0 0 0 0 0 0 0 0 0 0 0 3 3 6 10 6 10 29 74 94 97 100 100 100 100 100 97 90 87 68 26 6 3 3 0 0 0 6 0 3 0 0 0 0 0 0 0 0 0
0 0 0 0 0 0 0 0 0 0 0 6 10 10 13 19 19 23 35 77 94 100 100 100 100 97 90 87 58 19 6 0 0 0 0 0 0 0 0 0 0 0 0 0 0 0 0 0 0
0 0 0 0 0 0 0 0 0 0 0 10 10 16 16 39 23 19 32 55 74 87 97 97 97 87 87 77 35 19 16 6 0 0 0 0 0 0 0 0 0 0 0 0 0 0 0 0 0
0 0 0 0 0 0 0 0 0 0 0 6 19 29 48 52 48 48 55 71 87 84 94 97 90 87 77 52 32 23 13 3 0 0 0 0 0 0 0 0 0 0 0 0 0 0 0 0 0
0 0 0 0 0 0 0 0 0 0 6 10 23 32 42 42 58 58 65 81 87 84 84 81 74 65 39 29 16 19 6 0 0 0 0 0 0 0 0 0 0 0 0 0 0 0 0 0 0
0 0 0 0 0 0 0 0 0 10 26 42 32 39 32 19 29 39 48 58 65 61 61 58 45 19 16 6 6 6 3 3 0 0 0 0 0 0 0 0 0 0 0 0 0 0 0 0 0
0 0 0 0 0 0 0 0 6 23 52 39 29 32 23 23 19 29 29 26 23 26 23 16 13 6 3 3 0 3 0 0 0 0 0 0 0 0 0 0 0 0 0 0 0 0 0 0 0
0 0 0 0 0 0 0 3 10 39 58 19 26 19 16 3 10 3 3 3 3 3 0 0 0 0 0 0 0 0 0 0 0 0 0 0 0 0 0 0 0 0 0 0 0 0 0 0 0
0 0 0 0 0 0 0 0 3 52 58 32 19 10 3 0 0 0 0 0 0 0 0 0 0 0 0 0 0 0 0 0 0 0 0 0 0 0 0 0 0 0 0 0 0 0 0 0 0
0 0 0 0 0 0 0 0 3 42 68 45 13 10 3 0 0 0 0 0 0 0 0 0 0 0 0 0 0 0 0 0 0 0 0 0 0 0 0 0 0 0 0 0 0 0 0 0 0
0 0 0 0 0 0 0 0 16 61 71 39 10 0 0 0 0 0 0 0 0 0 0 0 0 0 0 0 0 0 0 0 0 0 0 0 0 0 0 0 0 0 0 0 0 0 0 0 0

GEFSSGP_con_cape1000_036.txt.gz
Probability
0 0 0 0 0 0 0 0 0 0 0 0 0 0 0 3 13 77 58 13 90 58 100 100 100 100 100 100 100 100 100 100 100 100 100 100 100 100 100 100 100 100 100 100 100 100 97 97 81
0 0 0 0 0 0 0 0 0 0 0 0 0 0 0 3 10 23 19 39 94 81 97 100 100 100 100 100 100 100 100 100 100 100 100 100 100 100 100 100 100 100 100 100 100 94 90 65 39
0 0 0 0 0 0 0 0 0 0 0 0 0 0 0 0 3 13 32 45 94 87 100 100 100 100 100 100 100 100 100 100 100 100 100 100 100 100 100 100 100 100 100 100 94 87 68 42 23
0 0 0 0 0 0 0 0 0 0 0 0 0 0 0 0 0 13 13 42 87 90 100 100 100 100 100 100 100 100 100 100 100 100 100 100 100 100 100 100 100 100 100 100 90 84 52 35 10
0 0 0 0 0 0 0 0 0 0 0 0 0 3 6 6 13 13 13 32 81 100 100 100 100 100 100 100 100 100 100 100 100 100 100 100 100 100 100 100 100 100 100 100 90 81 52 26 10
0 0 0 0 0 0 0 0 0 0 0 0 0 3 16 6 23 16 10 32 74 100 100 100 100 100 100 100 100 100 100 100 100 100 100 100 100 100 100 100 100 100 100 100 94 74 55 23 19
0 0 0 0 0 0 0 0 0 0 0 0 0 0 19 19 23 10 10 16 74 100 100 100 100 100 100 100 100 100 100 100 100 100 100 100 100 100 100 100 100 100 100 100 87 71 42 26 19
0 0 0 0 0 0 0 0 0 0 0 0 0 0 29 32 29 10 10 13 52 100 100 100 100 100 100 100 100 100 100 100 100 100 100 100 100 100 100 100 100 100 100 100 84 65 48 35 29
0 0 0 0 0 0 0 0 0 0 0 0 0 3 42 35 29 23 13 19 61 100 100 100 100 100 100 100 100 100 100 100 100 100 100 100 100 100 100 94 100 100 100 100 84 71 61 58 45
0 0 0 0 0 0 0 0 0 0 0 0 3 16 39 58 58 48 23 32 61 100 100 100 100 100 100 100 100 100 100 100 100 100 100 100 100 100 100 100 100 100 100 100 87 81 71 55 23
0 0 0 0 0 0 0 0 0 0 0 0 3 19 52 71 74 65 45 58 71 97 100 100 100 100 100 100 100 100 100 100 100 100 100 100 100 100 100 100 100 100 100 97 94 81 55 32 26
0 0 0 0 0 0 0 0 0 0 0 0 0 23 58 84 74 65 61 61 97 100 100 100 100 100 100 100 100 100 100 100 97 100 100 100 100 100 97 94 97 100 100 100 90 77 58 42 16
0 0 0 0 0 0 0 0 0 0 0 0 3 26 58 65 74 71 58 68 97 100 100 100 100 100 100 100 100 100 100 100 100 100 100 100 100 100 100 94 94 100 100 97 100 84 65 39 23
0 0 0 0 0 0 0 0 0 0 0 0 0 13 35 52 61 68 77 74 100 100 100 100 100 100 100 100 100 100 100 100 100 100 100 100 100 100 100 100 97 100 100 94 94 84 74 58 58
0 0 0 0 0 0 0 0 0 0 0 0 0 6 16 35 58 68 77 90 97 100 100 100 100 100 100 100 100 100 100 100 100 100 100 100 100 100 97 97 100 97 100 100 84 61 68 55 35
0 0 0 0 0 0 0 0 0 0 0 0 0 0 13 32 39 65 74 94 100 100 100 100 100 100 100 100 100 100 97 97 90 87 90 90 97 94 97 97 84 84 81 74 81 58 45 39 29
0 0 0 0 0 0 0 0 0 0 0 0 0 3 6 32 39 58 68 94 100 100 100 100 100 100 100 100 100 97 94 90 87 77 74 74 71 74 74 74 77 71 55 48 23 23 29 19 10
0 0 0 0 0 0 0 0 0 0 0 0 3 3 6 16 39 61 77 94 97 100 100 100 100 100 100 97 97 94 81 77 61 58 45 42 42 55 58 52 42 39 35 26 16 10 6 3 6
0 0 0 0 0 0 0 0 0 0 0 3 3 6 6 10 19 48 65 94 100 100 100 100 100 100 100 97 97 90 68 55 45 26 32 16 13 13 26 26 29 29 19 16 0 3 0 0 0
0 0 0 0 0 0 0 0 0 0 3 3 6 6 16 13 26 55 81 84 94 100 100 100 100 100 100 97 94 81 61 39 26 19 10 6 6 10 6 10 13 10 3 0 0 0 0 0 0
0 0 0 0 0 0 0 0 0 3 3 6 6 10 19 26 42 61 77 77 94 100 100 100 100 100 97 90 71 52 32 13 10 10 6 6 3 3 3 3 3 3 0 0 0 0 0 0 0
0 0 0 0 0 0 0 0 0 3 6 6 6 13 42 48 58 71 84 90 90 87 100 100 97 97 90 77 58 52 29 16 10 6 3 0 0 0 0 0 0 0 0 0 0 0 0 0 0
0 0 0 0 0 0 0 0 0 3 6 10 19 52 52 68 71 77 81 84 84 84 90 87 84 84 84 74 58 45 32 19 10 6 3 3 0 0 0 0 0 0 0 0 0 0 0 0 0
0 0 0 0 0 0 0 0 0 6 13 16 55 65 61 48 55 52 61 74 74 77 81 77 74 65 65 61 45 35 23 6 6 3 0 0 0 0 0 0 0 0 0 0 0 0 0 0 0
0 0 0 0 0 0 0 0 3 68 87 77 61 52 48 48 45 45 42 39 39 42 48 52 42 29 26 23 16 10 10 6 6 0 0 0 0 0 0 0 0 0 0 0 0 0 0 0 0
0 0 0 0 0 0 0 0 13 81 87 74 48 35 29 23 19 16 16 19 19 23 23 26 19 16 16 13 10 10 6 6 0 0 0 0 0 0 0 0 0 0 0 0 0 0 0 0 0
0 0 0 0 0 0 0 10 71 81 77 58 39 23 13 3 3 3 3 10 10 10 6 6 6 3 3 3 3 6 3 3 3 0 0 0 0 0 0 0 0 0 0 0 0 0 0 0 0
0 0 0 0 0 0 0 10 58 84 65 52 26 6 0 0 0 0 0 0 3 0 0 0 0 0 3 0 0 0 0 0 0 0 0 0 0 0 0 0 0 0 0 0 0 0 0 0 0
0 0 0 0 0 0 0 0 39 87 52 42 13 6 0 0 0 0 0 0 0 0 0 0 0 0 0 0 0 0 0 0 0 0 0 0 0 0 0 0 0 0 0 0 0 0 0 0 0
0 0 0 0 0 0 0 19 77 84 65 29 10 3 0 0 0 0 0 0 0 0 0 0 0 0 0 0 0 0 0 0 0 0 0 0 0 0 0 0 0 0 0 0 0 0 0 0 0